,,PA_Meas_PMT16A,,PR_Meas_QMR101_102,,RH_Meas_QMH101,,SR_Meas_QMS101,,TA_Meas_QMH101,,GenWind,,GenWind,
time,status,PA,status,PR,status,RH,status,SR,status,TA,status,DirAvg,status,SpdAvg,
2016-12-31, 14:41:04,VALID,916.981,VALID,0,INVALID,121.548,VALID,171.476,VALID,20.795,VALID,333,VALID,0,
2016-12-31, 14:42:04,VALID,917.008,VALID,0,INVALID,119.078,VALID,175.774,VALID,20.969,VALID,335,VALID,0,
2016-12-31, 14:45:04,VALID,917.06,VALID,0,VALID,92.4873,VALID,188.667,VALID,21.4794,VALID,347,VALID,0,
2016-12-31, 14:46:04,VALID,917.079,VALID,0,VALID,92.1366,VALID,193.824,VALID,21.4388,VALID,7,VALID,0,
2016-12-31, 14:47:04,VALID,917.085,VALID,0,VALID,95.8873,VALID,198.229,VALID,21.4209,VALID,7,VALID,0,
2016-12-31, 14:48:04,VALID,917.099,VALID,0,INVALID,111.424,VALID,202.956,VALID,21.3998,VALID,7,VALID,0,
2016-12-31, 14:49:04,VALID,917.097,VALID,0,INVALID,114.191,VALID,207.899,VALID,21.4193,VALID,7,VALID,0,
2016-12-31, 14:50:04,VALID,917.12,VALID,0,VALID,102.733,VALID,212.626,VALID,21.5168,VALID,7,VALID,0,
2016-12-31, 14:51:04,VALID,917.11,VALID,0,VALID,98.8681,VALID,215.634,VALID,21.6924,VALID,7,VALID,0,
2016-12-31, 14:52:04,VALID,917.131,VALID,0,VALID,97.5797,VALID,219.502,VALID,21.9656,VALID,7,VALID,0,
2016-12-31, 14:53:04,VALID,917.169,VALID,0,VALID,89.8191,VALID,221.866,VALID,22.2779,VALID,7,VALID,0,
2016-12-31, 14:54:04,VALID,917.162,VALID,0,VALID,86.5944,VALID,224.015,VALID,22.5121,VALID,7,VALID,0,
2016-12-31, 14:55:04,VALID,917.187,VALID,0,VALID,86.6096,VALID,230.354,VALID,22.6096,VALID,7,VALID,0,
2016-12-31, 14:56:04,VALID,917.191,VALID,0,VALID,84.8029,VALID,234.222,VALID,22.7463,VALID,7,VALID,0,
2016-12-31, 14:57:04,VALID,917.192,VALID,0,VALID,82.897,VALID,235.618,VALID,22.9397,VALID,7,VALID,0,
2016-12-31, 14:58:04,VALID,917.202,VALID,0,VALID,80.2974,VALID,239.486,VALID,23.2147,VALID,7,VALID,0,
2016-12-31, 14:59:04,VALID,917.218,VALID,0,VALID,79.901,VALID,242.065,VALID,23.2325,VALID,7,VALID,0,
2016-12-31, 15:00:04,VALID,917.241,VALID,0,VALID,81.0826,VALID,248.082,VALID,23.2147,VALID,7,VALID,0,
2016-12-31, 15:01:04,VALID,917.268,VALID,0,VALID,80.2746,VALID,250.983,VALID,23.3709,VALID,18,VALID,0,
2016-12-31, 15:02:04,VALID,917.289,VALID,0,VALID,80.4423,VALID,254.206,VALID,23.3709,VALID,18,VALID,0,
2016-12-31, 15:03:04,VALID,917.315,VALID,0,VALID,81.2046,VALID,256.355,VALID,23.2715,VALID,17,VALID,0,
2016-12-31, 15:04:04,VALID,917.311,VALID,0,VALID,81.2656,VALID,258.718,VALID,23.4277,VALID,17,VALID,0,
2016-12-31, 15:05:04,VALID,917.309,VALID,0,VALID,79.6495,VALID,260.76,VALID,23.5643,VALID,50,VALID,0,
2016-12-31, 15:06:04,VALID,917.309,VALID,0,VALID,82.0966,VALID,261.404,VALID,23.4277,VALID,34,VALID,0,
2016-12-31, 15:07:04,VALID,917.308,VALID,0,VALID,81.8374,VALID,264.09,VALID,23.3283,VALID,37,VALID,0,
2016-12-31, 15:08:04,VALID,917.332,VALID,0,VALID,81.4257,VALID,267.421,VALID,23.3691,VALID,54,VALID,0,
2016-12-31, 15:09:04,VALID,917.336,VALID,0,VALID,79.3979,VALID,272.793,VALID,23.4454,VALID,29,VALID,0,
2016-12-31, 15:10:04,VALID,917.325,VALID,0,VALID,81.5782,VALID,276.231,VALID,23.3869,VALID,36,VALID,0,
2016-12-31, 15:11:04,VALID,917.316,VALID,0,VALID,79.8553,VALID,279.24,VALID,23.3869,VALID,49,VALID,0,
2016-12-31, 15:12:04,VALID,917.343,VALID,0,VALID,80.5033,VALID,283.43,VALID,23.3478,VALID,20,VALID,0.828125,
2016-12-31, 15:13:04,VALID,917.358,VALID,0,VALID,81.319,VALID,286.76,VALID,23.1722,VALID,10,VALID,0.00585938,
2016-12-31, 15:14:04,VALID,917.361,VALID,0,VALID,81.4791,VALID,290.628,VALID,23.016,VALID,6,VALID,0,
2016-12-31, 15:15:04,VALID,917.35,VALID,0,VALID,84.1625,VALID,294.604,VALID,22.9575,VALID,6,VALID,0,
2016-12-31, 15:16:04,VALID,917.334,VALID,0,VALID,82.7064,VALID,298.257,VALID,23.0373,VALID,6,VALID,0,
2016-12-31, 15:17:04,VALID,917.381,VALID,0,VALID,81.7993,VALID,300.191,VALID,22.9787,VALID,22,VALID,0,
2016-12-31, 15:18:04,VALID,917.381,VALID,0,VALID,81.6849,VALID,302.662,VALID,23.0763,VALID,22,VALID,0,
2016-12-31, 15:19:04,VALID,917.361,VALID,0,VALID,83.3239,VALID,307.389,VALID,23.1544,VALID,22,VALID,0,
2016-12-31, 15:20:04,VALID,917.295,VALID,0,VALID,81.075,VALID,311.687,VALID,23.3106,VALID,65,VALID,0,
2016-12-31, 15:21:04,VALID,917.298,VALID,0,VALID,80.2669,VALID,315.232,VALID,23.3869,VALID,107,VALID,0.00585938,
2016-12-31, 15:22:04,VALID,917.252,VALID,0,VALID,79.9544,VALID,318.993,VALID,23.3869,VALID,114,VALID,0,
2016-12-31, 15:23:04,VALID,917.239,VALID,0,VALID,80.4194,VALID,321.249,VALID,23.3674,VALID,111,VALID,0,
2016-12-31, 15:24:04,VALID,917.221,VALID,0,VALID,79.9086,VALID,323.076,VALID,23.3674,VALID,111,VALID,0,
2016-12-31, 15:25:04,VALID,917.264,VALID,0,VALID,79.8858,VALID,326.514,VALID,23.5235,VALID,111,VALID,0,
2016-12-31, 15:26:04,VALID,917.267,VALID,0,VALID,79.8629,VALID,328.662,VALID,23.7968,VALID,111,VALID,0,
2016-12-31, 15:27:04,VALID,917.275,VALID,0,VALID,78.8109,VALID,331.241,VALID,23.9939,VALID,122,VALID,0,
2016-12-31, 15:28:04,VALID,917.263,VALID,0,VALID,77.1871,VALID,334.572,VALID,24.1287,VALID,139,VALID,0,
2016-12-31, 15:29:04,VALID,917.285,VALID,0,VALID,76.7678,VALID,337.58,VALID,24.1696,VALID,159,VALID,0,
2016-12-31, 15:30:04,VALID,917.289,VALID,0,VALID,76.1198,VALID,341.663,VALID,23.953,VALID,156,VALID,0,
2016-12-31, 15:31:04,VALID,917.239,VALID,0,VALID,78.14,VALID,347.035,VALID,23.8554,VALID,142,VALID,0,
2016-12-31, 15:32:04,VALID,917.235,VALID,0,VALID,78.8261,VALID,351.87,VALID,23.7773,VALID,128,VALID,0,
2016-12-31, 15:33:04,VALID,917.21,VALID,0,VALID,78.6432,VALID,356.167,VALID,23.6992,VALID,151,VALID,0,
2016-12-31, 15:34:04,VALID,917.177,VALID,0,VALID,79.2378,VALID,356.275,VALID,23.5803,VALID,150,VALID,0,
2016-12-31, 15:35:04,VALID,917.198,VALID,0,VALID,79.2302,VALID,353.696,VALID,23.3656,VALID,148,VALID,0.0175781,
2016-12-31, 15:36:04,VALID,917.196,VALID,0,VALID,82.2567,VALID,361.754,VALID,23.229,VALID,150,VALID,0,
2016-12-31, 15:37:04,VALID,917.156,VALID,0,VALID,81.7459,VALID,366.589,VALID,23.2502,VALID,107,VALID,0,
2016-12-31, 15:38:04,VALID,917.177,VALID,0,VALID,80.61,VALID,368.416,VALID,23.4064,VALID,113,VALID,0,
2016-12-31, 15:39:04,VALID,917.193,VALID,0,VALID,81.4943,VALID,373.573,VALID,23.4454,VALID,131,VALID,0.466016,
2016-12-31, 15:40:04,VALID,917.2,VALID,0,VALID,80.6786,VALID,376.796,VALID,23.2502,VALID,151,VALID,0.731641,
2016-12-31, 15:41:04,VALID,917.195,VALID,0,VALID,83.2706,VALID,380.557,VALID,23.1704,VALID,162,VALID,0.0257812,
2016-12-31, 15:42:04,VALID,917.153,VALID,0,VALID,82.4854,VALID,380.771,VALID,23.0924,VALID,148,VALID,0,
2016-12-31, 15:43:04,VALID,917.113,VALID,0,VALID,82.249,VALID,385.606,VALID,23.0338,VALID,114,VALID,0.166406,
2016-12-31, 15:44:04,VALID,917.146,VALID,0,VALID,84.132,VALID,391.193,VALID,23.0143,VALID,132,VALID,0.413672,
2016-12-31, 15:45:04,VALID,917.121,VALID,0,VALID,83.2096,VALID,393.127,VALID,22.9575,VALID,153,VALID,1.43242,
2016-12-31, 15:46:04,VALID,917.13,VALID,0,VALID,83.7051,VALID,399.574,VALID,22.8989,VALID,131,VALID,0.172266,
2016-12-31, 15:47:04,VALID,917.118,VALID,0,VALID,83.484,VALID,402.367,VALID,22.9575,VALID,148,VALID,0.00273437,
2016-12-31, 15:48:04,VALID,917.139,VALID,0,VALID,84.0482,VALID,398.284,VALID,23.0356,VALID,175,VALID,0.546094,
2016-12-31, 15:49:04,VALID,917.133,VALID,0,VALID,83.1486,VALID,400.755,VALID,23.1917,VALID,162,VALID,0.249219,
2016-12-31, 15:50:04,VALID,917.125,VALID,0,VALID,82.4167,VALID,405.161,VALID,23.2307,VALID,162,VALID,0,
2016-12-31, 15:51:04,VALID,917.145,VALID,0,VALID,81.6544,VALID,408.276,VALID,23.3283,VALID,167,VALID,0.750781,
2016-12-31, 15:52:04,VALID,917.127,VALID,0,VALID,82.2033,VALID,412.037,VALID,23.1331,VALID,151,VALID,1.80508,
2016-12-31, 15:53:04,VALID,917.133,VALID,0,VALID,83.1715,VALID,419.021,VALID,22.938,VALID,156,VALID,1.22539,
2016-12-31, 15:54:04,VALID,917.128,VALID,0,VALID,84.6123,VALID,420.31,VALID,22.9575,VALID,104,VALID,0,
2016-12-31, 15:55:04,VALID,917.117,VALID,0,VALID,83.6136,VALID,426.756,VALID,22.938,VALID,121,VALID,0.875,
2016-12-31, 15:56:04,VALID,917.135,VALID,0,VALID,83.9872,VALID,431.269,VALID,22.8226,VALID,123,VALID,1.33438,
2016-12-31, 15:57:04,VALID,917.126,VALID,0,VALID,85.8778,VALID,434.385,VALID,22.8599,VALID,167,VALID,0.917969,
2016-12-31, 15:58:04,VALID,917.134,VALID,0,VALID,85.306,VALID,440.186,VALID,23.0941,VALID,126,VALID,0.108594,
2016-12-31, 15:59:04,VALID,917.105,VALID,0,VALID,82.8208,VALID,443.732,VALID,23.2893,VALID,173,VALID,0,
2016-12-31, 16:00:04,VALID,917.124,VALID,0,VALID,81.197,VALID,448.244,VALID,23.4827,VALID,180,VALID,0,
2016-12-31, 16:01:04,VALID,917.121,VALID,0,VALID,79.3674,VALID,446.311,VALID,23.7187,VALID,155,VALID,0,
2016-12-31, 16:02:04,VALID,917.119,VALID,0,VALID,74.5494,VALID,378.515,VALID,23.6211,VALID,146,VALID,0.400781,
2016-12-31, 16:03:04,VALID,917.153,VALID,0,VALID,77.9494,VALID,447.922,VALID,23.6797,VALID,199,VALID,0,
2016-12-31, 16:04:04,VALID,917.176,VALID,0,VALID,77.7207,VALID,456.088,VALID,23.834,VALID,177,VALID,0,
2016-12-31, 16:05:04,VALID,917.204,VALID,0,VALID,76.2113,VALID,458.237,VALID,23.8944,VALID,181,VALID,0,
2016-12-31, 16:06:04,VALID,917.2,VALID,0,VALID,74.3054,VALID,218.858,VALID,23.9512,VALID,209,VALID,0,
2016-12-31, 16:07:04,VALID,917.211,VALID,0,VALID,76.4476,VALID,400.97,VALID,23.9902,VALID,160,VALID,0,
2016-12-31, 16:08:04,VALID,917.194,VALID,0,VALID,77.7055,VALID,304.381,VALID,24.0097,VALID,110,VALID,0.0078125,
2016-12-31, 16:09:04,VALID,917.221,VALID,0,VALID,78.1095,VALID,333.068,VALID,23.9512,VALID,103,VALID,0,
2016-12-31, 16:10:04,VALID,917.246,VALID,0,VALID,79.4894,VALID,386.896,VALID,24.0115,VALID,132,VALID,0,
2016-12-31, 16:11:04,VALID,917.287,VALID,0,VALID,77.21,VALID,350.473,VALID,24.1464,VALID,190,VALID,0,
2016-12-31, 16:12:04,VALID,917.314,VALID,0,VALID,76.5543,VALID,294.281,VALID,24.283,VALID,192,VALID,0.000390625,
2016-12-31, 16:13:04,VALID,917.366,VALID,0,VALID,76.1579,VALID,249.908,VALID,24.1659,VALID,179,VALID,0,
2016-12-31, 16:14:04,VALID,917.354,VALID,0,VALID,75.3803,VALID,204.246,VALID,24.3825,VALID,175,VALID,0,
2016-12-31, 16:15:04,VALID,917.361,VALID,0,VALID,73.3754,VALID,166.641,VALID,24.6559,VALID,187,VALID,0,
2016-12-31, 16:16:04,VALID,917.409,VALID,0,VALID,73.0476,VALID,138.921,VALID,24.6735,VALID,205,VALID,0.8,
2016-12-31, 16:17:04,VALID,917.393,VALID,0,VALID,72.1785,VALID,122.913,VALID,24.654,VALID,202,VALID,0.0847656,
2016-12-31, 16:18:04,VALID,917.432,VALID,0,VALID,72.1328,VALID,113.458,VALID,24.6949,VALID,182,VALID,0,
2016-12-31, 16:19:04,VALID,917.432,VALID,0,VALID,71.5534,VALID,111.631,VALID,24.8688,VALID,184,VALID,0,
2016-12-31, 16:20:04,VALID,917.421,VALID,0,VALID,70.3108,VALID,105.937,VALID,25.0445,VALID,184,VALID,0,
2016-12-31, 16:21:04,VALID,917.422,VALID,0,VALID,69.6933,VALID,104.11,VALID,25.2593,VALID,187,VALID,0,
2016-12-31, 16:22:04,VALID,917.433,VALID,0,VALID,69.8686,VALID,104.648,VALID,25.3589,VALID,99,VALID,0,
2016-12-31, 16:23:04,VALID,917.498,VALID,0,VALID,68.7937,VALID,105.507,VALID,25.396,VALID,100,VALID,0,
2016-12-31, 16:24:04,VALID,917.454,VALID,0,VALID,70.3641,VALID,109.483,VALID,25.2593,VALID,105,VALID,0,
2016-12-31, 16:26:04,VALID,917.485,VALID,0,VALID,68.8928,VALID,113.888,VALID,25.396,VALID,98,VALID,0,
2016-12-31, 16:27:04,VALID,917.486,VALID,0,VALID,70.1049,VALID,117.648,VALID,25.4351,VALID,98,VALID,0,
2016-12-31, 16:28:04,VALID,917.465,VALID,0,VALID,70.1659,VALID,111.954,VALID,25.3374,VALID,137,VALID,0,
2016-12-31, 16:29:04,VALID,917.468,VALID,0,VALID,70.5547,VALID,97.1268,VALID,25.3374,VALID,188,VALID,0,
2016-12-31, 16:30:04,VALID,917.454,VALID,0,VALID,70.3031,VALID,92.8292,VALID,25.3765,VALID,188,VALID,0,
2016-12-31, 16:31:04,VALID,917.472,VALID,0,VALID,66.987,VALID,88.3166,VALID,25.4937,VALID,84,VALID,0,
2016-12-31, 16:32:04,VALID,917.485,VALID,0,VALID,67.269,VALID,89.8208,VALID,25.6304,VALID,84,VALID,0,
2016-12-31, 16:33:04,VALID,917.486,VALID,0,VALID,65.6376,VALID,90.4654,VALID,25.6304,VALID,51,VALID,0.233984,
2016-12-31, 16:34:04,VALID,917.509,VALID,0,VALID,67.8179,VALID,91.5399,VALID,25.4741,VALID,47,VALID,0,
2016-12-31, 16:35:04,VALID,917.559,VALID,0,VALID,68.5193,VALID,98.9533,VALID,25.4156,VALID,20,VALID,0,
2016-12-31, 16:36:04,VALID,917.552,VALID,0,VALID,70.3108,VALID,110.987,VALID,25.4136,VALID,304,VALID,0,
2016-12-31, 16:37:04,VALID,917.535,VALID,0,VALID,71.2408,VALID,132.367,VALID,25.396,VALID,311,VALID,0,
2016-12-31, 16:38:04,VALID,917.536,VALID,0,VALID,72.4301,VALID,170.079,VALID,25.5503,VALID,310,VALID,0,
2016-12-31, 16:39:04,VALID,917.491,VALID,0,VALID,68.8013,VALID,227.775,VALID,25.6694,VALID,244,VALID,0,
2016-12-31, 16:40:04,VALID,917.475,VALID,0,VALID,71.4467,VALID,305.992,VALID,25.7671,VALID,267,VALID,0,
2016-12-31, 16:41:04,VALID,917.472,VALID,0,VALID,71.6601,VALID,386.896,VALID,25.7476,VALID,261,VALID,0,
2016-12-31, 16:42:04,VALID,917.431,VALID,0,VALID,70.3717,VALID,461.782,VALID,25.6089,VALID,258,VALID,0,
2016-12-31, 16:43:04,VALID,917.451,VALID,0,VALID,70.0058,VALID,515.932,VALID,25.687,VALID,44,VALID,0.134375,
2016-12-31, 16:44:04,VALID,917.44,VALID,0,VALID,72.1785,VALID,540.644,VALID,25.687,VALID,36,VALID,0.0566406,
2016-12-31, 16:45:04,VALID,917.46,VALID,0,VALID,69.6018,VALID,571.479,VALID,25.648,VALID,23,VALID,0.195313,
2016-12-31, 16:46:04,VALID,917.475,VALID,0,VALID,69.1673,VALID,580.612,VALID,25.4722,VALID,74,VALID,0,
2016-12-31, 16:47:04,VALID,917.493,VALID,0,VALID,71.1341,VALID,582.331,VALID,25.4937,VALID,350,VALID,0,
2016-12-31, 16:48:04,VALID,917.515,VALID,0,VALID,69.9677,VALID,581.364,VALID,25.4937,VALID,301,VALID,0,
2016-12-31, 16:49:04,VALID,917.516,VALID,0,VALID,71.3704,VALID,584.802,VALID,25.2203,VALID,302,VALID,0,
2016-12-31, 16:50:04,VALID,917.506,VALID,0,VALID,73.6879,VALID,588.025,VALID,25.2007,VALID,296,VALID,0,
2016-12-31, 16:51:04,VALID,917.496,VALID,0,VALID,71.9193,VALID,591.893,VALID,25.2203,VALID,246,VALID,0,
2016-12-31, 16:52:04,VALID,917.486,VALID,0,VALID,73.1238,VALID,596.728,VALID,25.0426,VALID,253,VALID,0,
2016-12-31, 16:53:04,VALID,917.467,VALID,0,VALID,73.3754,VALID,597.695,VALID,24.9664,VALID,261,VALID,0,
2016-12-31, 16:54:04,VALID,917.457,VALID,0,VALID,75.2431,VALID,599.199,VALID,25.1031,VALID,254,VALID,0,
2016-12-31, 16:55:04,VALID,917.48,VALID,0,VALID,71.4771,VALID,597.803,VALID,25.0621,VALID,256,VALID,0,
2016-12-31, 16:56:04,VALID,917.464,VALID,0,VALID,70.2574,VALID,600.166,VALID,24.9059,VALID,256,VALID,0,
2016-12-31, 16:57:04,VALID,917.455,VALID,0,VALID,72.0184,VALID,600.918,VALID,24.7693,VALID,255,VALID,0,
2016-12-31, 16:58:04,VALID,917.425,VALID,0,VALID,72.4225,VALID,605.968,VALID,24.7693,VALID,251,VALID,0,
2016-12-31, 16:59:04,VALID,917.444,VALID,0,VALID,71.5076,VALID,607.58,VALID,24.9059,VALID,275,VALID,0,
2016-12-31, 17:00:04,VALID,917.418,VALID,0,VALID,70.3108,VALID,608.117,VALID,24.9859,VALID,283,VALID,0,
2016-12-31, 17:01:04,VALID,917.404,VALID,0,VALID,69.9143,VALID,618.539,VALID,24.984,VALID,289,VALID,0,
2016-12-31, 17:02:04,VALID,917.4,VALID,0,VALID,71.3552,VALID,621.332,VALID,25.0231,VALID,296,VALID,0.153125,
2016-12-31, 17:03:04,VALID,917.384,VALID,0,VALID,70.0668,VALID,623.374,VALID,25.2769,VALID,345,VALID,0,
2016-12-31, 17:04:04,VALID,917.378,VALID,0,VALID,69.4341,VALID,625.522,VALID,25.5698,VALID,350,VALID,0,
2016-12-31, 17:05:04,VALID,917.368,VALID,0,VALID,67.7341,VALID,622.514,VALID,25.7651,VALID,352,VALID,0,
2016-12-31, 17:06:04,VALID,917.353,VALID,0,VALID,68.1381,VALID,629.175,VALID,25.982,VALID,352,VALID,0,
2016-12-31, 17:07:04,VALID,917.356,VALID,0,VALID,67.7112,VALID,632.399,VALID,25.98,VALID,331,VALID,0,
2016-12-31, 17:08:04,VALID,917.309,VALID,0,VALID,65.3251,VALID,637.341,VALID,25.9604,VALID,25,VALID,0,
2016-12-31, 17:09:04,VALID,917.318,VALID,0,VALID,65.8358,VALID,640.886,VALID,26.0386,VALID,36,VALID,0,
2016-12-31, 17:10:04,VALID,917.343,VALID,0,VALID,65.2946,VALID,640.242,VALID,25.9624,VALID,70,VALID,0,
2016-12-31, 17:11:04,VALID,917.306,VALID,0,VALID,65.63,VALID,639.812,VALID,25.8823,VALID,96,VALID,0,
2016-12-31, 17:12:04,VALID,917.287,VALID,0,VALID,65.8358,VALID,645.506,VALID,26.0386,VALID,96,VALID,0,
2016-12-31, 17:13:04,VALID,917.28,VALID,0,VALID,65.5842,VALID,646.581,VALID,26.2925,VALID,242,VALID,0,
2016-12-31, 17:14:04,VALID,917.29,VALID,0,VALID,65.4623,VALID,650.664,VALID,26.4117,VALID,238,VALID,0,
2016-12-31, 17:15:04,VALID,917.243,VALID,0,VALID,65.9349,VALID,651.953,VALID,26.4488,VALID,238,VALID,0,
2016-12-31, 17:16:04,VALID,917.27,VALID,0,VALID,64.5627,VALID,653.994,VALID,26.5464,VALID,284,VALID,0,
2016-12-31, 17:17:04,VALID,917.286,VALID,0,VALID,67.5663,VALID,657.218,VALID,26.312,VALID,272,VALID,0,
2016-12-31, 17:18:04,VALID,917.292,VALID,0,VALID,65.4318,VALID,660.656,VALID,26.3706,VALID,288,VALID,0,
2016-12-31, 17:19:04,VALID,917.308,VALID,0,VALID,65.508,VALID,662.16,VALID,26.3882,VALID,354,VALID,0,
2016-12-31, 17:20:04,VALID,917.287,VALID,0,VALID,66.0035,VALID,660.871,VALID,26.5269,VALID,356,VALID,0,
2016-12-31, 17:21:04,VALID,917.296,VALID,0,VALID,64.6237,VALID,662.482,VALID,26.8004,VALID,45,VALID,0,
2016-12-31, 17:22:04,VALID,917.289,VALID,0,VALID,64.2883,VALID,666.565,VALID,26.9567,VALID,358,VALID,0,
2016-12-31, 17:23:04,VALID,917.285,VALID,0,VALID,62.7941,VALID,670.54,VALID,27.0935,VALID,4,VALID,0,
2016-12-31, 17:24:04,VALID,917.263,VALID,0,VALID,64.2578,VALID,673.441,VALID,27.1911,VALID,11,VALID,0.418359,
2016-12-31, 17:25:04,VALID,917.271,VALID,0,VALID,62.4282,VALID,672.689,VALID,27.2107,VALID,308,VALID,0,
2016-12-31, 17:26:04,VALID,917.273,VALID,0,VALID,63.7241,VALID,674.408,VALID,27.2302,VALID,316,VALID,0,
2016-12-31, 17:27:04,VALID,917.241,VALID,0,VALID,62.4815,VALID,676.342,VALID,27.2868,VALID,314,VALID,0,
2016-12-31, 17:28:04,VALID,917.263,VALID,0,VALID,62.4434,VALID,682.036,VALID,27.2302,VALID,259,VALID,0.00078125,
2016-12-31, 17:29:04,VALID,917.242,VALID,0,VALID,63.3811,VALID,683.433,VALID,26.8004,VALID,244,VALID,0.0597656,
2016-12-31, 17:30:04,VALID,917.279,VALID,0,VALID,67.0556,VALID,684.293,VALID,26.6636,VALID,252,VALID,0.0105469,
2016-12-31, 17:31:04,VALID,917.259,VALID,0,VALID,65.1878,VALID,683.541,VALID,26.3316,VALID,229,VALID,0,
2016-12-31, 17:32:04,VALID,917.298,VALID,0,VALID,65.6452,VALID,684.937,VALID,26.1362,VALID,250,VALID,0.219141,
2016-12-31, 17:33:04,VALID,917.259,VALID,0,VALID,65.8739,VALID,687.086,VALID,26.1147,VALID,203,VALID,0,
2016-12-31, 17:34:04,VALID,917.261,VALID,0,VALID,64.982,VALID,690.309,VALID,26.2514,VALID,278,VALID,0.473437,
2016-12-31, 17:35:04,VALID,917.229,VALID,0,VALID,67.1242,VALID,692.028,VALID,26.1538,VALID,275,VALID,0,
2016-12-31, 17:36:04,VALID,917.24,VALID,0,VALID,64.9896,VALID,695.789,VALID,26.4097,VALID,272,VALID,0.0179687,
2016-12-31, 17:37:04,VALID,917.243,VALID,0,VALID,65.9578,VALID,698.582,VALID,26.2319,VALID,235,VALID,0.655078,
2016-12-31, 17:38:04,VALID,917.194,VALID,0,VALID,65.8816,VALID,702.665,VALID,26.3511,VALID,222,VALID,0.0195313,
2016-12-31, 17:39:04,VALID,917.233,VALID,0,VALID,65.5156,VALID,706.64,VALID,26.3882,VALID,296,VALID,0,
2016-12-31, 17:40:04,VALID,917.186,VALID,0,VALID,65.7825,VALID,709.971,VALID,26.31,VALID,251,VALID,1.12305,
2016-12-31, 17:41:04,VALID,917.17,VALID,0,VALID,66.8497,VALID,712.12,VALID,26.1753,VALID,221,VALID,0.732422,
2016-12-31, 17:42:04,VALID,917.186,VALID,0,VALID,64.8753,VALID,709.219,VALID,26.1733,VALID,230,VALID,0.262109,
2016-12-31, 17:43:04,VALID,917.164,VALID,0,VALID,65.9197,VALID,712.657,VALID,26.2144,VALID,240,VALID,1.09727,
2016-12-31, 17:44:04,VALID,917.142,VALID,0,VALID,67.4825,VALID,709.326,VALID,26.1167,VALID,248,VALID,1.07422,
2016-12-31, 17:45:04,VALID,917.154,VALID,0,VALID,65.1497,VALID,708.359,VALID,25.978,VALID,238,VALID,1.07852,
2016-12-31, 17:46:04,VALID,917.112,VALID,0,VALID,67.7188,VALID,709.434,VALID,26.0366,VALID,249,VALID,0.223828,
2016-12-31, 17:47:04,VALID,917.11,VALID,0,VALID,65.104,VALID,713.409,VALID,26.2319,VALID,225,VALID,0.351563,
2016-12-31, 17:48:04,VALID,917.067,VALID,0,VALID,66.1484,VALID,721.467,VALID,26.4488,VALID,238,VALID,0.00585938,
2016-12-31, 17:49:04,VALID,917.041,VALID,0,VALID,63.0457,VALID,723.294,VALID,26.4663,VALID,256,VALID,0.787891,
2016-12-31, 17:50:04,VALID,917.06,VALID,0,VALID,66.0035,VALID,721.79,VALID,26.271,VALID,248,VALID,0.758984,
2016-12-31, 17:51:04,VALID,917.016,VALID,0,VALID,65.9197,VALID,723.401,VALID,26.271,VALID,267,VALID,0.00585938,
2016-12-31, 17:52:04,VALID,917.003,VALID,0,VALID,63.7546,VALID,724.261,VALID,26.3511,VALID,273,VALID,0.435156,
2016-12-31, 17:53:04,VALID,917.011,VALID,0,VALID,63.5412,VALID,724.261,VALID,26.31,VALID,290,VALID,0,
2016-12-31, 17:54:04,VALID,916.997,VALID,0,VALID,64.0138,VALID,724.798,VALID,26.3491,VALID,246,VALID,0.964063,
2016-12-31, 17:55:04,VALID,916.964,VALID,0,VALID,62.9923,VALID,726.087,VALID,26.3296,VALID,233,VALID,0.462891,
2016-12-31, 17:56:04,VALID,916.973,VALID,0,VALID,62.8093,VALID,723.294,VALID,26.3882,VALID,239,VALID,0.976172,
2016-12-31, 17:57:04,VALID,916.969,VALID,0,VALID,63.0838,VALID,725.872,VALID,26.4077,VALID,246,VALID,0.222266,
2016-12-31, 17:58:04,VALID,916.961,VALID,0,VALID,64.5551,VALID,727.806,VALID,26.5249,VALID,256,VALID,0,
2016-12-31, 17:59:04,VALID,916.928,VALID,0,VALID,64.0138,VALID,728.666,VALID,26.5835,VALID,243,VALID,0.846875,
2016-12-31, 18:00:04,VALID,916.923,VALID,0,VALID,63.6403,VALID,728.451,VALID,26.603,VALID,208,VALID,0.196875,
2016-12-31, 18:01:04,VALID,916.872,VALID,0,VALID,63.5488,VALID,723.616,VALID,26.7027,VALID,215,VALID,1.07891,
2016-12-31, 18:02:04,VALID,916.862,VALID,0,VALID,63.5259,VALID,713.624,VALID,26.7007,VALID,301,VALID,0.765625,
2016-12-31, 18:03:04,VALID,916.86,VALID,0,VALID,63.5869,VALID,726.732,VALID,26.7788,VALID,310,VALID,0.465625,
2016-12-31, 18:04:04,VALID,916.821,VALID,0,VALID,61.7649,VALID,729.633,VALID,26.6812,VALID,221,VALID,0.853125,
2016-12-31, 18:05:04,VALID,916.836,VALID,0,VALID,63.7165,VALID,731.352,VALID,26.7202,VALID,227,VALID,0,
2016-12-31, 18:06:04,VALID,916.843,VALID,0,VALID,61.6201,VALID,728.988,VALID,26.7809,VALID,259,VALID,0.897266,
2016-12-31, 18:07:04,VALID,916.806,VALID,0,VALID,63.0609,VALID,732.426,VALID,26.6421,VALID,263,VALID,0,
2016-12-31, 18:08:04,VALID,916.805,VALID,0,VALID,63.7165,VALID,730.492,VALID,26.8981,VALID,227,VALID,0.108203,
2016-12-31, 18:09:04,VALID,916.817,VALID,0,VALID,61.4524,VALID,730.063,VALID,26.7788,VALID,267,VALID,0.955859,
2016-12-31, 18:10:04,VALID,916.846,VALID,0,VALID,62.8246,VALID,734.038,VALID,26.5074,VALID,248,VALID,0.373437,
2016-12-31, 18:11:04,VALID,916.846,VALID,0,VALID,63.9147,VALID,739.303,VALID,26.3316,VALID,240,VALID,0,
2016-12-31, 18:12:04,VALID,916.836,VALID,0,VALID,63.9605,VALID,747.038,VALID,26.4878,VALID,149,VALID,0,
2016-12-31, 18:13:04,VALID,916.785,VALID,0,VALID,62.5501,VALID,748.542,VALID,26.7788,VALID,233,VALID,0,
2016-12-31, 18:14:04,VALID,916.782,VALID,0,VALID,63.5564,VALID,747.038,VALID,26.7984,VALID,257,VALID,0.871875,
2016-12-31, 18:15:04,VALID,916.763,VALID,0,VALID,63.1295,VALID,754.237,VALID,26.6226,VALID,221,VALID,1.28867,
2016-12-31, 18:16:04,VALID,916.736,VALID,0,VALID,62.0317,VALID,756.171,VALID,26.7398,VALID,214,VALID,0.431641,
2016-12-31, 18:17:04,VALID,916.696,VALID,0,VALID,62.5273,VALID,754.882,VALID,26.7202,VALID,259,VALID,1.78945,
2016-12-31, 18:18:04,VALID,916.679,VALID,0,VALID,62.0927,VALID,763.477,VALID,26.564,VALID,301,VALID,1.92031,
2016-12-31, 18:19:04,VALID,916.686,VALID,0,VALID,64.1739,VALID,766.378,VALID,26.5054,VALID,224,VALID,0.512891,
2016-12-31, 18:20:04,VALID,916.632,VALID,0,VALID,63.4726,VALID,765.196,VALID,26.6421,VALID,216,VALID,0.391406,
2016-12-31, 18:21:04,VALID,916.591,VALID,0,VALID,62.329,VALID,766.378,VALID,26.8199,VALID,249,VALID,0.0101562,
2016-12-31, 18:22:04,VALID,916.583,VALID,0,VALID,63.038,VALID,768.849,VALID,27.0544,VALID,214,VALID,0.346875,
2016-12-31, 18:23:04,VALID,916.571,VALID,0,VALID,61.5133,VALID,771.965,VALID,27.15,VALID,217,VALID,0.0464844,
2016-12-31, 18:24:04,VALID,916.606,VALID,0,VALID,60.1183,VALID,770.675,VALID,27.0328,VALID,247,VALID,1.61016,
2016-12-31, 18:25:04,VALID,916.604,VALID,0,VALID,61.0102,VALID,773.361,VALID,26.859,VALID,250,VALID,0.526563,